| time (UTC) | temp C | wind direction | speed KPH | gust KPH | rain 1hr cm | rain 24hr cm | rain mn cm | humidity % | barometer mb |
| 20260906090805 | 6 | 132 | 8.0 | 11.3 | 0.00 | 0.00 | 0.00 | 91 | 1015.4 |
| 20260906090305 | 6 | 281 | 4.8 | 11.3 | 0.00 | 0.00 | 0.00 | 92 | 1015.4 |
| 20260906080805 | 7 | 271 | 3.2 | 8.0 | 0.00 | 0.00 | 0.00 | 89 | 1015.2 |
| 20260906080305 | 7 | 335 | 4.8 | 8.0 | 0.00 | 0.00 | 0.00 | 88 | 1015.2 |
| 20260906070812 | 10 | 21 | 3.2 | 8.0 | 0.00 | 0.00 | 0.00 | 81 | 1014.7 |
| 20260906070305 | 10 | 272 | 8.0 | 9.7 | 0.00 | 0.00 | 0.00 | 81 | 1014.6 |
| 20260906060805 | 11 | 265 | 4.8 | 8.0 | 0.00 | 0.00 | 0.00 | 76 | 1014.0 |
| 20260906060305 | 11 | 142 | 1.6 | 4.8 | 0.00 | 0.00 | 0.00 | 75 | 1014.0 |
| 20260906050305 | 14 | 77 | 0.0 | 4.8 | 0.00 | 0.00 | 0.00 | 66 | 1013.3 |
| 20260906040805 | 16 | 97 | 1.6 | 4.8 | 0.00 | 0.00 | 0.00 | 60 | 1012.8 |
| 20260906040306 | 16 | 77 | 1.6 | 4.8 | 0.00 | 0.00 | 0.00 | 60 | 1012.8 |
| 20260906020806 | 21 | 47 | 3.2 | 4.8 | 0.00 | 0.00 | 0.00 | 42 | 1012.2 |
| 20260906020305 | 21 | 3 | 3.2 | 9.7 | 0.00 | 0.00 | 0.00 | 42 | 1012.3 |
| 20260906010805 | 22 | 22 | 3.2 | 4.8 | 0.00 | 0.00 | 0.00 | 40 | 1012.1 |
| 20260906000805 | 21 | 39 | 3.2 | 3.2 | 0.00 | 0.00 | 0.00 | 48 | 1012.5 |
| 20260906000305 | 21 | 356 | 1.6 | 4.8 | 0.00 | 0.00 | 0.00 | 46 | 1012.4 |
| 20260905230805 | 18 | 60 | 1.6 | 1.6 | 0.00 | 0.00 | 0.00 | 50 | 1013.0 |
| 20260905220805 | 18 | 356 | 0.0 | 4.8 | 0.00 | 0.00 | 0.00 | 50 | 1013.2 |
| 20260905220306 | 18 | 70 | 1.6 | 8.0 | 0.00 | 0.00 | 0.00 | 50 | 1013.2 |
| 20260905210805 | 17 | 92 | 1.6 | 4.8 | 0.00 | 0.00 | 0.00 | 49 | 1013.6 |
| 20260905210305 | 17 | 1 | 1.6 | 4.8 | 0.00 | 0.00 | 0.00 | 50 | 1013.7 |
| 20260905200306 | 16 | 77 | 1.6 | 4.8 | 0.00 | 0.00 | 0.00 | 53 | 1013.7 |
| 20260905190306 | 14 | 38 | 0.0 | 4.8 | 0.00 | 0.00 | 0.00 | 63 | 1014.1 |
| 20260905180805 | 11 | 318 | 1.6 | 3.2 | 0.00 | 0.00 | 0.00 | 74 | 1014.6 |
| 20260905180305 | 11 | 10 | 0.0 | 12.9 | 0.00 | 0.00 | 0.00 | 74 | 1014.7 |
| 20260905170804 | 7 | 264 | 3.2 | 9.7 | 0.00 | 0.00 | 0.00 | 91 | 1015.4 |
| 20260905170305 | 6 | 274 | 1.6 | 9.7 | 0.00 | 0.00 | 0.00 | 93 | 1015.4 |
| 20260905160805 | 4 | 270 | 8.0 | 11.3 | 0.00 | 0.00 | 0.00 | 99 | 1016.0 |
| 20260905160306 | 3 | 130 | 8.0 | 11.3 | 0.00 | 0.00 | 0.00 | 99 | 1016.0 |
| 20260905150805 | 1 | 239 | 4.8 | 8.0 | 0.00 | 0.00 | 0.00 | 99 | 1016.3 |
| 20260905150305 | 1 | 128 | 3.2 | 9.7 | 0.00 | 0.00 | 0.00 | 99 | 1016.3 |
| 20260905140805 | 1 | 283 | 8.0 | 8.0 | 0.00 | 0.00 | 0.00 | 98 | 1016.5 |
| 20260905130806 | 2 | 258 | 3.2 | 8.0 | 0.00 | 0.00 | 0.00 | 98 | 1016.3 |
| 20260905130305 | 2 | 280 | 4.8 | 8.0 | 0.00 | 0.00 | 0.00 | 98 | 1016.4 |
| 20260905120805 | 2 | 278 | 4.8 | 4.8 | 0.00 | 0.00 | 0.00 | 98 | 1016.7 |
| 20260905120305 | 2 | 275 | 4.8 | 8.0 | 0.00 | 0.00 | 0.00 | 98 | 1016.8 |
| 20260905110805 | 3 | 269 | 4.8 | 8.0 | 0.00 | 0.00 | 0.00 | 98 | 1017.2 |
| 20260905110305 | 3 | 272 | 6.4 | 9.7 | 0.00 | 0.00 | 0.00 | 98 | 1017.3 |
| 20260905100805 | 5 | 277 | 6.4 | 8.0 | 0.00 | 0.00 | 0.00 | 97 | 1017.1 |
| 20260905100305 | 5 | 278 | 8.0 | 11.3 | 0.00 | 0.00 | 0.00 | 98 | 1017.1 |